Wind_Speed
27 28 27 25 23 21 18 17 17 15 17 22 25 24 21 26 26 24 22 24 29 30 29 30 34 36 35 40 37 46 44 41 41 41 41 40 40 41 43 45 47 49 51 52
29 28 24 24 22 20 21 23 23 22 22 26 29 25 25 30 28 27 26 27 31 33 34 35 37 39 40 42 44 47 48 48 48 48 47 47 47 48 48 48 50 51 51 52
27 23 20 23 24 24 27 26 23 22 19 25 31 25 27 32 28 26 25 27 30 33 35 36 36 38 40 42 44 46 48 50 51 52 51 51 52 53 53 54 54 54 54 56
25 22 23 26 26 27 28 24 22 23 22 23 27 23 25 35 33 29 27 28 30 30 32 35 36 37 39 41 44 46 48 49 50 51 52 53 54 55 56 57 58 59 60 62
24 23 26 29 29 28 26 22 21 22 24 26 25 25 26 36 38 33 29 28 28 31 33 35 37 38 40 41 43 45 46 48 49 50 51 52 53 55 57 59 61 62 65 68
24 23 26 27 28 29 26 24 25 25 25 28 26 25 29 38 40 33 28 28 32 37 38 37 38 39 40 41 42 44 45 46 47 48 49 50 52 55 57 60 63 65 68 71
23 24 26 28 28 27 27 26 26 26 26 26 23 25 32 42 42 36 34 36 39 40 39 38 37 37 38 39 41 42 42 43 44 46 48 50 53 56 59 62 65 68 71 75
21 24 23 28 28 26 27 26 26 24 21 19 20 28 38 39 39 39 38 38 40 40 38 37 37 38 38 39 39 40 41 42 44 47 49 52 55 57 61 65 69 72 75 77
23 22 20 26 28 25 25 26 23 24 25 25 25 29 32 34 35 36 38 40 40 38 38 39 39 39 40 40 40 40 42 44 47 50 52 55 58 61 65 68 71 71 71 70
25 27 23 20 27 27 23 22 22 25 28 29 28 30 35 35 35 37 39 39 39 39 41 43 42 41 41 41 41 43 45 47 50 52 55 58 61 64 66 67 64 61 58 54
30 31 30 24 27 28 28 27 29 28 27 29 29 33 37 35 34 36 38 38 38 41 44 45 44 43 43 43 44 45 47 50 52 55 58 60 62 63 61 57 52 48 45 42
34 35 37 34 30 33 33 29 27 31 32 30 28 34 39 38 38 39 38 39 42 46 48 48 47 46 45 46 47 48 50 52 54 57 60 61 60 56 50 45 42 40 38 37
40 39 41 39 37 35 35 30 29 29 31 33 30 36 36 37 38 40 43 43 44 46 47 48 48 47 47 48 49 51 52 54 56 59 59 57 50 44 40 39 38 38 38 38
47 47 47 44 39 35 38 37 35 33 35 34 32 36 37 38 40 41 41 42 44 45 47 48 47 47 48 49 50 52 53 55 58 57 53 45 39 36 36 36 36 37 38 39
54 54 53 50 44 39 38 40 40 40 38 35 35 39 38 39 40 39 39 40 42 45 47 47 47 48 48 49 50 51 53 56 54 49 41 35 33 33 33 34 35 37 39 40
58 61 60 58 53 45 43 41 43 39 37 37 38 43 42 42 41 39 40 43 46 46 46 46 48 49 49 49 50 51 54 52 46 39 33 30 30 30 31 33 35 38 40 42
53 59 61 63 57 49 49 47 45 40 35 40 41 39 38 39 41 43 45 47 46 45 45 47 48 48 48 48 49 52 50 43 36 30 27 27 27 28 30 34 37 39 41 42
49 54 54 55 53 53 53 51 49 44 42 44 45 39 36 41 44 45 45 44 43 43 45 47 47 46 46 46 48 48 41 33 27 24 24 24 26 29 32 35 39 41 42 43
48 51 51 49 48 49 53 50 47 49 48 48 48 48 47 47 46 46 44 41 42 43 45 45 45 43 44 46 45 39 30 24 22 21 22 24 27 30 34 38 41 42 43 42
47 49 50 49 48 50 52 52 51 48 49 51 52 51 49 46 46 45 42 41 42 42 42 42 40 40 42 43 37 28 22 19 19 20 22 25 29 33 37 41 43 43 43 42
39 45 49 46 41 44 47 48 48 49 48 46 45 44 44 44 43 43 42 41 40 39 38 36 37 39 40 35 26 19 17 16 18 20 24 28 32 36 40 43 43 43 42 41
33 35 42 45 44 42 38 42 47 42 36 34 34 35 36 37 38 39 38 37 36 34 33 34 36 36 32 24 17 14 14 16 19 22 27 31 36 40 42 43 42 41 41 40
33 33 34 38 42 42 41 40 39 39 36 35 34 33 32 33 33 33 33 33 31 30 31 33 34 30 22 15 12 12 13 17 21 25 30 34 38 41 42 41 40 40 41 40
24 28 31 33 37 38 37 35 31 30 31 32 31 30 29 29 29 29 28 27 27 27 30 31 28 20 13 10 9 11 14 19 23 28 32 37 40 41 41 40 40 40 41 40
20 21 25 28 31 33 30 27 26 26 27 27 27 27 26 27 26 26 24 24 25 27 28 26 18 11 8 7 8 11 16 21 26 30 34 38 40 40 40 40 41 40 40 39
18 21 23 25 26 25 24 23 22 23 24 24 24 24 24 24 23 22 21 22 24 26 23 16 10 8 6 6 9 13 18 23 27 32 36 38 38 39 39 41 40 40 39 38
Wind_Direction
253 255 258 259 258 257 242 231 238 245 247 244 251 259 258 256 259 260 255 256 262 274 282 281 285 293 296 301 298 305 310 311 307 305 303 299 297 293 291 291 291 291 292 292
253 255 256 253 249 251 251 246 242 234 239 249 254 260 255 257 263 262 259 259 263 272 276 280 286 291 295 297 299 301 304 305 304 304 303 302 300 298 296 296 294 292 292 292
253 253 253 254 246 244 248 251 248 243 246 260 266 263 255 264 269 268 267 270 273 276 280 282 284 286 290 291 293 296 298 300 301 302 302 302 301 301 300 299 297 296 294 292
250 244 239 247 247 245 253 258 255 246 237 245 266 271 260 264 269 272 273 275 281 284 284 283 283 283 285 288 290 293 295 297 298 299 299 299 299 298 297 297 296 296 295 294
249 245 242 246 255 254 255 253 248 253 252 241 245 258 258 259 266 271 271 273 282 291 291 287 285 286 288 290 293 294 295 296 296 296 296 296 296 295 294 294 294 294 294 294
250 244 247 248 251 258 255 249 247 243 246 249 246 243 253 259 265 271 269 275 287 294 294 292 291 291 292 294 295 295 295 296 296 295 295 295 295 294 293 293 293 294 293 293
254 250 242 248 248 251 251 247 246 249 249 254 256 248 249 253 262 267 270 280 291 294 294 295 294 295 296 297 297 297 297 297 297 297 297 296 294 293 293 294 294 294 294 293
249 256 253 253 259 253 252 250 244 242 253 266 257 244 240 245 253 259 267 278 288 293 296 297 298 299 301 301 301 301 301 300 299 299 297 296 296 296 296 296 297 297 296 295
239 243 259 262 262 256 242 248 251 242 240 248 261 265 259 256 255 261 267 275 284 290 296 299 301 303 304 305 305 305 303 302 301 300 300 299 300 300 301 301 301 300 300 300
244 231 226 248 251 251 246 234 243 246 243 246 250 264 269 262 259 262 264 268 276 285 294 299 301 304 306 307 307 305 304 303 303 302 302 303 304 304 305 305 305 305 304 305
254 247 233 233 243 240 251 252 237 236 243 249 255 256 259 264 266 266 267 268 275 286 294 298 301 305 308 309 308 307 306 305 305 305 306 307 307 308 309 309 309 309 309 309
239 246 245 235 237 248 251 255 251 240 237 238 246 259 262 264 268 269 271 277 284 291 295 299 303 308 310 310 309 308 308 307 308 308 309 310 310 311 312 313 314 315 314 313
228 232 241 240 234 241 247 238 238 244 247 245 243 254 259 265 268 271 274 279 285 290 296 301 305 308 309 310 310 309 309 309 310 311 312 313 313 314 316 317 317 317 317 316
230 230 233 235 235 239 251 248 245 245 245 248 246 252 256 261 264 265 270 278 284 289 295 300 304 306 308 309 309 309 310 311 313 313 314 315 316 317 319 320 321 322 322 321
233 233 234 235 233 231 244 252 248 239 238 243 248 250 253 257 261 266 273 278 284 290 295 299 302 305 307 308 308 310 312 314 315 316 316 317 319 321 323 326 327 328 328 326
240 238 237 237 237 235 236 251 258 254 240 233 243 248 248 254 262 269 277 283 289 292 296 299 301 304 306 307 309 311 314 315 316 316 317 319 322 326 328 331 332 332 332 330
241 244 242 242 242 241 237 238 247 255 252 238 235 245 248 254 263 272 279 284 288 293 296 298 301 303 305 307 310 313 315 315 315 316 318 323 327 330 333 334 335 334 333 332
244 245 247 248 245 240 240 237 238 239 239 236 239 248 258 268 273 277 279 283 289 292 294 296 299 302 304 308 312 314 314 314 315 317 322 327 330 333 334 335 334 334 333 332
245 242 243 246 244 240 239 237 235 235 242 246 249 253 263 271 274 275 279 285 288 289 292 295 297 301 305 309 312 312 311 312 315 320 325 328 332 333 333 333 332 332 332 332
242 238 238 240 236 230 233 236 238 242 243 247 252 257 263 269 272 275 280 282 284 286 289 292 296 301 306 310 310 309 307 310 315 321 326 329 331 331 331 331 332 332 332 332
231 230 229 231 231 228 231 235 239 242 244 248 253 258 262 267 271 275 278 280 283 286 289 293 299 304 308 308 306 302 303 310 318 323 327 329 329 330 331 332 333 333 332 332
221 223 227 233 238 238 236 235 237 241 243 250 256 260 264 266 269 273 277 279 282 286 291 297 302 306 306 303 297 296 304 313 320 325 327 328 329 330 332 332 333 333 332 333
220 218 222 230 236 238 239 241 239 240 249 258 264 266 266 267 269 273 276 278 282 287 293 299 304 305 299 290 287 297 309 318 323 326 327 329 330 331 332 334 335 335 335 336
212 215 222 230 235 237 234 234 236 243 251 259 262 264 266 267 270 273 275 277 283 290 297 302 303 296 282 275 288 305 316 323 326 327 330 332 332 333 335 338 339 340 340 340
219 220 226 233 237 238 238 238 242 250 256 255 257 261 265 269 272 273 276 281 289 296 301 301 292 271 259 272 298 315 323 326 329 331 334 335 336 338 339 342 344 345 344 343
228 228 231 236 236 239 243 245 246 248 247 250 255 260 265 269 271 274 279 288 294 299 299 288 260 240 249 283 313 324 328 331 335 337 338 339 341 343 344 345 347 348 347 346
Height
5851 5853 5854 5857 5858 5861 5863 5866 5869 5873 5874 5871 5869 5868 5868 5865 5865 5866 5865 5862 5858 5855 5855 5851 5847 5843 5838 5833 5827 5825 5824 5825 5825 5825 5822 5819 5816 5813 5809 5807 5803 5799 5796 5792
5845 5847 5850 5851 5853 5856 5858 5860 5863 5865 5866 5865 5863 5862 5862 5859 5859 5859 5858 5856 5853 5851 5849 5848 5845 5842 5838 5833 5829 5824 5822 5820 5817 5815 5812 5809 5806 5802 5799 5796 5793 5789 5785 5781
5839 5843 5845 5845 5847 5851 5852 5854 5856 5858 5860 5859 5856 5857 5855 5851 5852 5852 5852 5850 5848 5847 5845 5844 5842 5840 5836 5832 5828 5824 5820 5816 5812 5808 5804 5800 5795 5791 5787 5784 5780 5777 5773 5769
5833 5837 5840 5841 5843 5845 5846 5848 5849 5850 5852 5854 5852 5851 5850 5843 5842 5844 5845 5843 5842 5841 5840 5838 5837 5835 5832 5828 5825 5820 5816 5812 5807 5802 5797 5792 5788 5783 5778 5774 5769 5764 5759 5754
5828 5832 5833 5835 5837 5838 5839 5842 5843 5845 5845 5847 5848 5847 5845 5835 5833 5835 5836 5835 5834 5834 5833 5831 5829 5827 5824 5822 5818 5814 5810 5805 5800 5795 5790 5785 5780 5774 5769 5764 5759 5753 5747 5740
5822 5826 5828 5829 5832 5832 5833 5836 5836 5837 5839 5838 5840 5842 5840 5826 5824 5827 5828 5828 5828 5827 5826 5823 5821 5819 5816 5813 5810 5806 5801 5796 5792 5787 5781 5776 5771 5765 5759 5753 5747 5741 5734 5726
5816 5819 5821 5823 5824 5826 5827 5829 5830 5831 5831 5832 5835 5836 5833 5820 5820 5823 5823 5822 5821 5820 5818 5816 5813 5811 5808 5805 5801 5797 5792 5787 5782 5777 5772 5766 5761 5754 5748 5741 5734 5727 5719 5711
5811 5813 5815 5816 5817 5820 5820 5822 5824 5827 5828 5829 5829 5826 5819 5817 5816 5816 5817 5817 5815 5813 5811 5809 5806 5803 5800 5796 5792 5787 5783 5778 5772 5767 5762 5755 5749 5743 5735 5727 5718 5710 5700 5691
5805 5809 5813 5810 5810 5812 5814 5815 5818 5820 5821 5823 5821 5814 5813 5812 5812 5811 5811 5810 5808 5807 5805 5802 5799 5795 5792 5787 5783 5778 5773 5768 5762 5756 5750 5743 5736 5729 5720 5711 5701 5691 5681 5671
5797 5800 5803 5804 5803 5803 5807 5810 5814 5813 5814 5815 5817 5813 5806 5807 5806 5805 5803 5801 5800 5800 5797 5794 5791 5787 5783 5779 5775 5769 5764 5758 5752 5745 5738 5730 5722 5714 5704 5694 5684 5674 5664 5656
5791 5792 5795 5798 5797 5799 5801 5803 5804 5806 5808 5809 5810 5808 5799 5801 5800 5798 5795 5793 5793 5792 5789 5786 5783 5779 5775 5770 5765 5759 5753 5747 5740 5733 5725 5717 5708 5698 5689 5679 5670 5661 5653 5646
5782 5783 5783 5788 5792 5792 5794 5796 5797 5798 5799 5801 5804 5798 5792 5794 5793 5790 5787 5785 5785 5783 5781 5777 5774 5770 5765 5760 5754 5748 5742 5735 5728 5720 5712 5703 5693 5684 5676 5668 5660 5653 5645 5639
5769 5771 5773 5777 5784 5784 5784 5787 5790 5791 5792 5792 5795 5791 5787 5786 5785 5784 5781 5780 5778 5776 5773 5769 5765 5761 5756 5750 5744 5737 5731 5724 5716 5708 5699 5690 5681 5673 5666 5660 5653 5646 5639 5632
5758 5760 5762 5766 5773 5779 5777 5779 5782 5784 5784 5784 5785 5782 5781 5778 5777 5775 5774 5773 5772 5769 5766 5762 5758 5753 5748 5741 5735 5727 5721 5713 5705 5696 5687 5679 5672 5666 5660 5653 5646 5640 5633 5626
5746 5748 5752 5756 5761 5767 5768 5767 5770 5770 5773 5777 5775 5770 5770 5769 5768 5767 5767 5766 5764 5762 5759 5755 5750 5745 5739 5732 5725 5719 5711 5703 5695 5686 5679 5672 5666 5660 5654 5648 5641 5634 5626 5619
5733 5736 5741 5744 5749 5755 5758 5758 5757 5759 5761 5764 5761 5755 5760 5760 5760 5760 5760 5759 5757 5754 5751 5747 5741 5736 5731 5724 5717 5710 5702 5694 5686 5679 5672 5667 5661 5655 5649 5643 5635 5628 5620 5611
5719 5722 5727 5730 5738 5742 5745 5750 5751 5753 5753 5753 5746 5745 5750 5752 5753 5754 5754 5752 5749 5747 5743 5738 5733 5728 5722 5716 5709 5702 5694 5686 5679 5673 5668 5662 5657 5651 5645 5638 5630 5622 5614 5604
5706 5709 5713 5718 5725 5726 5733 5737 5741 5742 5738 5736 5737 5739 5742 5744 5746 5747 5746 5745 5743 5740 5735 5730 5725 5720 5714 5708 5702 5694 5686 5680 5674 5669 5664 5659 5654 5647 5640 5633 5625 5616 5607 5598
5694 5698 5702 5706 5709 5714 5718 5725 5730 5729 5728 5730 5733 5734 5735 5737 5738 5738 5739 5738 5735 5731 5727 5722 5717 5712 5707 5701 5694 5687 5681 5676 5671 5667 5662 5656 5650 5643 5636 5628 5619 5610 5601 5591
5680 5685 5691 5694 5697 5701 5706 5712 5716 5718 5718 5721 5725 5727 5729 5729 5729 5731 5732 5730 5727 5723 5719 5715 5710 5705 5700 5693 5686 5681 5677 5673 5669 5664 5659 5653 5646 5639 5631 5623 5614 5604 5594 5584
5667 5672 5677 5682 5684 5686 5694 5700 5705 5709 5711 5714 5717 5718 5720 5721 5722 5722 5721 5720 5717 5714 5711 5707 5703 5698 5692 5686 5681 5677 5674 5670 5666 5661 5656 5649 5642 5635 5626 5617 5608 5598 5588 5579
5656 5663 5669 5674 5675 5681 5685 5690 5696 5699 5701 5705 5708 5709 5712 5714 5713 5712 5712 5711 5708 5706 5703 5700 5696 5691 5685 5680 5677 5674 5671 5668 5664 5659 5653 5646 5638 5630 5621 5612 5602 5593 5583 5574
5649 5655 5661 5666 5670 5674 5678 5682 5687 5691 5695 5698 5701 5703 5704 5705 5705 5705 5704 5703 5701 5699 5697 5693 5689 5684 5680 5677 5675 5672 5670 5666 5661 5656 5649 5642 5634 5625 5616 5607 5597 5587 5577 5567
5645 5650 5656 5661 5664 5669 5673 5677 5680 5684 5689 5692 5694 5696 5697 5698 5698 5698 5697 5697 5695 5694 5691 5687 5683 5679 5677 5675 5673 5671 5668 5664 5659 5653 5646 5638 5630 5620 5611 5602 5592 5582 5571 5561
5643 5647 5652 5657 5661 5665 5668 5671 5675 5679 5683 5685 5687 5689 5691 5691 5692 5691 5691 5691 5690 5688 5684 5681 5678 5676 5675 5674 5672 5670 5666 5662 5656 5650 5643 5634 5625 5615 5606 5597 5587 5577 5567 5557
5641 5645 5650 5653 5657 5661 5664 5667 5670 5674 5677 5680 5682 5684 5685 5686 5686 5686 5686 5686 5684 5682 5679 5676 5675 5675 5674 5673 5671 5668 5665 5660 5654 5647 5639 5630 5621 5612 5602 5592 5584 5574 5564 5554